When you browse on this site, cookies collect data to enhance your experience and personalize the content and advertising you see.
Visit our Privacy Policy to learn more. By continuing to use the site, you agree to this use of cookies and data.
  • In Deutschland
  • Länderverzeichnis
  • Für 7 Tage
  • Wassertemperatur
  • Wetterkarte
  • Widgets
  • user-avatar
    Anmelden

    Stündliche Wetter Gjirokaster

    Heute, 18 August, Sonntag

    Zeit Temperatur Niederschläge Wind Luftdruck Luftfeuchtigkeit
    00:00 +14°C° 0 mm 2 m/S 652 mmHg 56%
    01:00 +14°C° 0 mm 2 m/S 652 mmHg 53%
    02:00 +14°C° 0 mm 1 m/S 652 mmHg 51%
    03:00 +14°C° 0 mm 1 m/S 652 mmHg 50%
    04:00 +13°C° 0 mm 1 m/S 652 mmHg 48%
    05:00 +15°C° 0 mm 1 m/S 653 mmHg 44%
    06:00 +18°C° 0 mm 1 m/S 653 mmHg 40%
    07:00 +20°C° 0 mm 1 m/S 654 mmHg 35%
    08:00 +22°C° 0 mm 1 m/S 655 mmHg 32%
    09:00 +24°C° 0 mm 1 m/S 655 mmHg 29%
    10:00 +26°C° 0 mm 1 m/S 656 mmHg 26%
    11:00 +26°C° 0 mm 2 m/S 656 mmHg 26%
    12:00 +26°C° 0 mm 2 m/S 656 mmHg 26%
    13:00 +27°C° 0 mm 3 m/S 656 mmHg 27%
    14:00 +26°C° 0 mm 3 m/S 655 mmHg 30%
    15:00 +25°C° 0 mm 3 m/S 655 mmHg 33%
    16:00 +24°C° 0 mm 3 m/S 654 mmHg 36%
    17:00 +21°C° 0 mm 3 m/S 654 mmHg 42%
    18:00 +19°C° 0 mm 2 m/S 653 mmHg 48%
    19:00 +18°C° 0 mm 1 m/S 653 mmHg 53%
    20:00 +16°C° 0 mm 1 m/S 653 mmHg 54%
    21:00 +16°C° 0 mm 1 m/S 653 mmHg 54%
    22:00 +15°C° 0 mm 1 m/S 653 mmHg 54%
    23:00 +15°C° 0 mm 1 m/S 653 mmHg 54%

    Morgen, 19 August, Montag

    Zeit Temperatur Niederschläge Wind Luftdruck Luftfeuchtigkeit
    00:00 +15°C° 0 mm 1 m/S 653 mmHg 53%
    01:00 +15°C° 0 mm 1 m/S 653 mmHg 53%
    02:00 +15°C° 0 mm 1 m/S 653 mmHg 53%
    03:00 +14°C° 0 mm 1 m/S 653 mmHg 54%
    04:00 +14°C° 0 mm 1 m/S 653 mmHg 54%
    05:00 +16°C° 0 mm 1 m/S 653 mmHg 49%
    06:00 +19°C° 0 mm 1 m/S 654 mmHg 45%
    07:00 +21°C° 0 mm 1 m/S 655 mmHg 40%
    08:00 +23°C° 0 mm 1 m/S 655 mmHg 36%
    09:00 +24°C° 0 mm 1 m/S 656 mmHg 33%
    10:00 +26°C° 0 mm 1 m/S 656 mmHg 29%
    11:00 +27°C° 0 mm 2 m/S 656 mmHg 29%
    12:00 +27°C° 0 mm 2 m/S 656 mmHg 28%
    13:00 +28°C° 0 mm 3 m/S 656 mmHg 28%
    14:00 +27°C° 0 mm 3 m/S 656 mmHg 29%
    15:00 +26°C° 0 mm 3 m/S 655 mmHg 31%
    16:00 +25°C° 0 mm 3 m/S 655 mmHg 32%
    17:00 +23°C° 0 mm 2 m/S 654 mmHg 38%
    18:00 +20°C° 0 mm 2 m/S 654 mmHg 43%
    19:00 +19°C° 0 mm 1 m/S 654 mmHg 48%
    20:00 +18°C° 0 mm 1 m/S 654 mmHg 50%
    21:00 +18°C° 0 mm 1 m/S 654 mmHg 52%
    22:00 +18°C° 0 mm 1 m/S 654 mmHg 54%
    23:00 +16°C° 0 mm 1 m/S 654 mmHg 55%

    übermorgen, 20 August, Dienstag

    Zeit Temperatur Niederschläge Wind Luftdruck Luftfeuchtigkeit
    00:00 +16°C° 0 mm 1 m/S 654 mmHg 56%
    01:00 +16°C° 0 mm 1 m/S 654 mmHg 57%
    02:00 +16°C° 0 mm 1 m/S 654 mmHg 57%
    03:00 +15°C° 0 mm 1 m/S 654 mmHg 57%
    04:00 +15°C° 0 mm 1 m/S 654 mmHg 57%
    05:00 +18°C° 0 mm 1 m/S 654 mmHg 51%
    06:00 +20°C° 0 mm 1 m/S 655 mmHg 46%
    07:00 +22°C° 0 mm 1 m/S 656 mmHg 40%
    08:00 +24°C° 0 mm 1 m/S 656 mmHg 36%
    09:00 +26°C° 0 mm 1 m/S 657 mmHg 32%
    10:00 +28°C° 0 mm 1 m/S 657 mmHg 28%
    11:00 +28°C° 0 mm 2 m/S 657 mmHg 27%
    12:00 +29°C° 0 mm 2 m/S 657 mmHg 27%
    13:00 +29°C° 0 mm 2 m/S 657 mmHg 27%
    14:00 +28°C° 0 mm 2 m/S 657 mmHg 29%
    15:00 +27°C° 0 mm 2 m/S 656 mmHg 30%
    16:00 +27°C° 0 mm 2 m/S 656 mmHg 32%
    17:00 +24°C° 0 mm 2 m/S 655 mmHg 38%
    18:00 +22°C° 0 mm 1 m/S 655 mmHg 44%
    19:00 +20°C° 0 mm 1 m/S 654 mmHg 49%
    20:00 +19°C° 0 mm 1 m/S 654 mmHg 50%
    21:00 +19°C° 0 mm 1 m/S 655 mmHg 51%
    22:00 +18°C° 0 mm 1 m/S 655 mmHg 52%
    23:00 +18°C° 0 mm 1 m/S 654 mmHg 53%

    21 August, Mittwoch

    Zeit Temperatur Niederschläge Wind Luftdruck Luftfeuchtigkeit
    00:00 +18°C° 0 mm 1 m/S 654 mmHg 55%
    01:00 +16°C° 0 mm 1 m/S 654 mmHg 56%
    02:00 +16°C° 0 mm 1 m/S 654 mmHg 56%
    03:00 +16°C° 0 mm 1 m/S 654 mmHg 57%
    04:00 +16°C° 0 mm 1 m/S 654 mmHg 58%
    05:00 +19°C° 0 mm 1 m/S 654 mmHg 52%
    06:00 +18°C° 0 mm 0 m/S 655 mmHg 47%
    07:00 +20°C° 0 mm 0 m/S 656 mmHg 42%
    08:00 +24°C° 0 mm 1 m/S 656 mmHg 38%
    09:00 +26°C° 0 mm 1 m/S 657 mmHg 33%
    10:00 +28°C° 0 mm 2 m/S 657 mmHg 29%
    11:00 +28°C° 0 mm 2 m/S 657 mmHg 30%
    12:00 +28°C° 0 mm 3 m/S 657 mmHg 30%
    13:00 +28°C° 0 mm 3 m/S 656 mmHg 30%
    14:00 +28°C° 0 mm 3 m/S 656 mmHg 32%
    15:00 +27°C° 0 mm 3 m/S 655 mmHg 33%
    16:00 +26°C° 0 mm 3 m/S 655 mmHg 35%
    17:00 +24°C° 0 mm 2 m/S 655 mmHg 41%
    18:00 +21°C° 0 mm 2 m/S 654 mmHg 48%
    19:00 +20°C° 0 mm 1 m/S 654 mmHg 54%
    20:00 +19°C° 0 mm 1 m/S 654 mmHg 55%
    21:00 +19°C° 0 mm 1 m/S 654 mmHg 56%
    22:00 +18°C° 0 mm 1 m/S 654 mmHg 57%
    23:00 +18°C° 0 mm 1 m/S 654 mmHg 58%

    22 August, Donnerstag

    Zeit Temperatur Niederschläge Wind Luftdruck Luftfeuchtigkeit
    00:00 +18°C° 0 mm 1 m/S 654 mmHg 59%
    01:00 +18°C° 0 mm 1 m/S 654 mmHg 59%
    02:00 +16°C° 0 mm 1 m/S 654 mmHg 59%
    03:00 +16°C° 0 mm 1 m/S 653 mmHg 59%
    04:00 +16°C° 0 mm 1 m/S 653 mmHg 59%
    05:00 +19°C° 0 mm 1 m/S 654 mmHg 53%
    06:00 +21°C° 0 mm 1 m/S 655 mmHg 47%
    07:00 +23°C° 0 mm 1 m/S 655 mmHg 41%
    08:00 +25°C° 0 mm 1 m/S 656 mmHg 36%
    09:00 +27°C° 0 mm 1 m/S 656 mmHg 31%
    10:00 +29°C° 0 mm 1 m/S 657 mmHg 27%
    11:00 +29°C° 0 mm 2 m/S 657 mmHg 27%
    12:00 +29°C° 0 mm 2 m/S 656 mmHg 27%
    13:00 +29°C° 0 mm 3 m/S 656 mmHg 27%
    14:00 +28°C° 0 mm 3 m/S 656 mmHg 29%
    15:00 +28°C° 0 mm 3 m/S 655 mmHg 31%
    16:00 +27°C° 0 mm 3 m/S 655 mmHg 33%
    17:00 +25°C° 0 mm 2 m/S 655 mmHg 39%
    18:00 +23°C° 0 mm 2 m/S 654 mmHg 45%
    19:00 +21°C° 0 mm 1 m/S 654 mmHg 51%
    20:00 +20°C° 0 mm 1 m/S 654 mmHg 52%
    21:00 +20°C° 0 mm 1 m/S 654 mmHg 53%
    22:00 +19°C° 0 mm 1 m/S 654 mmHg 55%
    23:00 +19°C° 0 mm 1 m/S 654 mmHg 55%

    23 August, Freitag

    Zeit Temperatur Niederschläge Wind Luftdruck Luftfeuchtigkeit
    00:00 +19°C° 0 mm 1 m/S 654 mmHg 56%
    01:00 +18°C° 0 mm 1 m/S 653 mmHg 56%
    02:00 +18°C° 0 mm 1 m/S 653 mmHg 56%
    03:00 +18°C° 0 mm 1 m/S 653 mmHg 56%
    04:00 +18°C° 0 mm 1 m/S 653 mmHg 55%
    05:00 +19°C° 0 mm 1 m/S 654 mmHg 50%
    06:00 +21°C° 0 mm 1 m/S 654 mmHg 44%
    07:00 +23°C° 0 mm 1 m/S 655 mmHg 39%
    08:00 +25°C° 0 mm 1 m/S 656 mmHg 35%
    09:00 +27°C° 0 mm 1 m/S 656 mmHg 30%
    10:00 +29°C° 0 mm 1 m/S 657 mmHg 26%
    11:00 +28°C° 0 mm 2 m/S 656 mmHg 28%
    12:00 +28°C° 0 mm 2 m/S 656 mmHg 29%
    13:00 +27°C° 0 mm 2 m/S 655 mmHg 31%
    14:00 +27°C° 0 mm 2 m/S 655 mmHg 31%
    15:00 +27°C° 0 mm 2 m/S 655 mmHg 32%
    16:00 +27°C° 0 mm 2 m/S 655 mmHg 33%
    17:00 +25°C° 0 mm 2 m/S 655 mmHg 36%
    18:00 +24°C° 0 mm 1 m/S 654 mmHg 40%
    19:00 +22°C° 0 mm 1 m/S 654 mmHg 44%
    20:00 +22°C° 0 mm 1 m/S 654 mmHg 45%
    21:00 +22°C° 0 mm 1 m/S 654 mmHg 46%
    22:00 +21°C° 0 mm 1 m/S 654 mmHg 47%
    23:00 +21°C° 0 mm 1 m/S 654 mmHg 47%
    Mehr zeigen